Location: Unspecified
(0.0000°N, 0.0000°E)
Time: 14:49:06
(UTC+00:00)

Vanguard 2 Rocket - All Passes

Search period start: 01 August 2021 00:00
Search period end: 11 August 2021 00:00
Orbit: 555 x 3325 km, 32.9° (Epoch: 01 August)

Date Brightness Start Highest point End Pass type
(mag) Time Alt. Az. Time Alt. Az. Time Alt. Az.
01 Aug - 01:08:10 10° SW 01:21:06 37° SSE 01:28:53 10° E night (unlit)
01 Aug - 03:26:09 10° WSW 03:36:24 68° NW 03:42:09 10° NE visible
01 Aug - 12:32:49 10° N 12:38:34 22° NE 12:46:57 10° E daylight
01 Aug - 14:43:13 10° NW 14:52:48 85° NE 15:09:58 10° SE daylight
01 Aug - 16:58:08 10° W 17:10:43 42° SSW 17:28:46 10° SE daylight
01 Aug - 19:19:52 10° WSW 19:32:56 22° SSW 19:46:51 10° SSE visible
01 Aug - 21:45:45 10° SSW 21:57:48 18° S 22:07:58 10° SE visible
02 Aug - 00:05:49 10° SW 00:19:27 30° SSE 00:28:25 10° ESE night (unlit)
02 Aug - 02:23:48 10° SW 02:36:26 78° SE 02:43:15 10° ENE visible
02 Aug - 04:44:21 10° W 04:49:32 19° NW 04:53:23 10° N visible
02 Aug - 11:37:48 10° NE 11:38:36 10° NE 11:39:28 10° NE daylight
02 Aug - 13:44:11 10° NW 13:52:14 60° NE 14:06:41 10° ESE daylight
02 Aug - 15:57:23 10° WNW 16:08:28 52° SSW 16:26:21 10° SE daylight
02 Aug - 18:16:19 10° WSW 18:29:08 26° SSW 18:44:31 10° SSE visible
02 Aug - 20:41:30 10° SW 20:53:43 18° S 21:05:02 10° SE visible
02 Aug - 23:03:11 10° SSW 23:17:07 25° SSE 23:27:11 10° ESE visible
03 Aug - 01:21:25 10° SW 01:35:48 56° SSE 01:43:52 10° ENE visible
03 Aug - 03:40:54 10° WSW 03:50:06 38° NW 03:55:41 10° NNE visible
03 Aug - 12:45:43 10° NNW 12:52:13 36° NE 13:03:00 10° ESE daylight
03 Aug - 14:57:24 10° WNW 15:06:55 68° SSW 15:23:44 10° SE daylight
03 Aug - 17:13:56 10° WSW 17:25:54 31° SSW 17:42:06 10° SE daylight
03 Aug - 19:37:12 10° SW 19:49:23 19° S 20:01:52 10° SE visible
03 Aug - 22:00:16 10° SSW 22:14:03 22° SSE 22:25:04 10° ESE visible
04 Aug - 00:18:58 10° SW 00:34:30 43° SSE 00:43:55 10° E night (unlit)
04 Aug - 02:37:52 10° WSW 02:50:23 66° NW 02:57:12 10° NE visible
04 Aug - 11:48:02 10° N 11:52:32 19° NE 11:58:45 10° E daylight
04 Aug - 13:58:01 10° NW 14:06:03 89° NE 14:20:57 10° SE daylight
04 Aug - 16:12:36 10° W 16:23:20 37° SSW 16:39:37 10° SE daylight
04 Aug - 18:33:24 10° SW 18:45:13 21° S 18:58:42 10° SSE visible
04 Aug - 20:57:06 10° SSW 21:10:17 20° S 21:22:01 10° SE visible
04 Aug - 23:16:29 10° SW 23:32:31 35° SSE 23:43:16 10° E visible
05 Aug - 01:35:01 10° SW 01:50:05 84° SE 01:58:14 10° ENE visible
05 Aug - 03:56:39 10° W 04:03:44 22° NW 04:08:38 10° N visible
05 Aug - 12:59:07 10° NW 13:05:52 59° NE 13:18:00 10° ESE daylight
05 Aug - 15:12:06 10° W 15:21:26 47° SSW 15:37:08 10° SE daylight
05 Aug - 17:30:29 10° WSW 17:41:34 23° SSW 17:55:41 10° SSE daylight
05 Aug - 19:53:46 10° SW 20:06:03 19° S 20:18:12 10° SE visible
05 Aug - 22:13:59 10° SSW 22:29:50 29° SSE 22:41:45 10° ESE visible
06 Aug - 00:32:18 10° SW 00:49:08 63° SSE 00:58:45 10° ENE night (unlit)
06 Aug - 02:52:40 10° WSW 03:04:03 41° NW 03:10:44 10° NNE visible
06 Aug - 12:00:47 10° NNW 12:06:11 33° NE 12:14:50 10° ESE daylight
06 Aug - 14:12:17 10° WNW 14:20:14 61° SSW 14:34:40 10° SE daylight
06 Aug - 16:28:31 10° WSW 16:38:37 27° SSW 16:52:53 10° SSE daylight
06 Aug - 18:50:30 10° SW 19:01:44 18° S 19:14:01 10° SE visible
06 Aug - 21:11:30 10° SSW 21:26:29 24° SSE 21:39:11 10° ESE visible
06 Aug - 23:29:44 10° SW 23:47:27 49° SSE 23:58:37 10° E visible
07 Aug - 01:49:10 10° WSW 02:03:59 66° NW 02:12:09 10° NE visible
07 Aug - 04:14:21 10° WNW 04:17:34 12° NW 04:20:17 10° NNW visible
07 Aug - 11:03:22 10° N 11:06:44 16° NE 11:11:03 10° ENE daylight
07 Aug - 13:13:00 10° WNW 13:19:43 86° SW 13:32:14 10° SE daylight
07 Aug - 15:27:26 10° W 15:36:24 32° SSW 15:50:19 10° SE daylight
07 Aug - 17:47:32 10° SW 17:57:44 19° S 18:09:58 10° SSE daylight
07 Aug - 20:09:03 10° SSW 20:22:35 21° SSE 20:35:28 10° SE visible
07 Aug - 22:27:20 10° SW 22:45:06 39° SSE 22:57:44 10° E visible
08 Aug - 00:45:59 10° SW 01:03:18 88° SE 01:13:02 10° NE visible
08 Aug - 03:08:26 10° W 03:17:40 25° NW 03:23:47 10° NNE visible
08 Aug - 12:14:12 10° NW 12:19:51 59° NE 12:29:47 10° ESE daylight
08 Aug - 14:27:07 10° W 14:34:52 40° SSW 14:47:58 10° SE daylight
08 Aug - 16:45:11 10° SW 16:54:22 20° S 17:06:23 10° SSE daylight
08 Aug - 19:06:41 10° SSW 19:18:22 19° S 19:30:44 10° SE visible
08 Aug - 21:25:11 10° SSW 21:42:08 32° SSE 21:55:51 10° E visible
08 Aug - 23:43:09 10° SW 00:01:57 68° SSE 00:13:21 10° ENE visible
09 Aug - 02:04:00 10° WSW 02:17:38 43° NW 02:25:39 10° NNE visible
09 Aug - 11:15:55 10° NNW 11:20:25 30° NE 11:27:14 10° E daylight
09 Aug - 13:27:22 10° WNW 13:34:01 53° SSW 13:45:53 10° SE daylight
09 Aug - 15:43:33 10° WSW 15:51:45 23° SSW 16:03:25 10° SSE daylight
09 Aug - 18:04:25 10° SSW 18:14:14 17° S 18:25:31 10° SE visible
09 Aug - 20:23:17 10° SSW 20:38:39 26° SSE 20:52:46 10° ESE visible
09 Aug - 22:40:40 10° SW 22:59:54 53° SSE 23:12:59 10° ENE visible
10 Aug - 01:00:11 10° WSW 01:17:08 65° NW 01:26:53 10° NE visible
10 Aug - 03:25:42 10° WNW 03:31:33 15° NW 03:36:04 10° N visible
10 Aug - 10:18:44 10° N 10:21:06 13° NE 10:23:53 10° ENE daylight
10 Aug - 12:28:07 10° WNW 12:33:48 79° SSW 12:43:57 10° SE daylight
10 Aug - 14:42:38 10° WSW 14:49:54 27° SSW 15:01:00 10° SSE daylight
10 Aug - 17:02:18 10° SW 17:10:32 16° S 17:20:39 10° SSE daylight
10 Aug - 19:21:38 10° SSW 19:34:46 21° SSE 19:48:19 10° ESE visible
10 Aug - 21:38:34 10° SW 21:57:15 42° SSE 22:11:46 10° E visible
